STARLINK-32136, 61515

Orbit data source: Space-Track

STARLINK-32136, 61515 is a payload satellite owned by SpaceX/Seattle (US) in LEO that was launched on Tue, 15 Oct 2024 UTC via an FALCON 9 launch vehicle from the Air Force Eastern Test Range (AFETR). Payload-class satellites include a variety of spacecraft equipped with specific instruments for various scientific and technological missions. These include communications satellites like Starlink; space stations such as the ISS; scientific satellites like the Hubble; Earth observation satellites from companies like Planet Labs, Umbra, and HawkEye 360; GPS; miniature CubeSats for education and research; and military/defense satellites.

Loading next visibility...
Identifier
61515, 2024-183G
Orbit
LEO
Country
Flag of USUS
Related business
Manufacturer
SpaceX/Seattle
Mission
Operational Commercial Communications
Bus & Motor
STARLINK V2M, Unknown motor
Mass
730 kg wet, ~700 kg dry
Launch date (UTC)
2024-10-15 (2 years ago)
Launch vehicle
FALCON 9
Launch site
Air Force Eastern Test Range (AFETR)
Object type
Payload
Rocket body
Debris
Shape & HBR
Box + 2 Pan, 17.7 m
Radar Cross Section
33.884 m², Large (>1 m²)

Expand to show TLE details & history
Last TLE update: 23 hours ago

TLE from 23 hours ago
0 STARLINK-32136
1 61515U 24183G   26170.88310575  .00000464  00000-0  26726-4 0  9990
2 61515  53.1622  27.4331 0001202  99.2845 260.8292 15.31705751 95302
Epoch: 2026-06-19T21:11Z
TLE epoch observation values (Epoch: 2026-06-19T21:11:40.336Z)
Latitude
-0.00007°
Longitude
161.40928°
Altitude
471.755 km
Speed
7.631 km/s
True Right ascension
01h 49m 43s
True Declination
0° 00' 00"
Sunlit
Object was in daylight at epoch
Visualization orbit readout
Latitude
Unknown
Longitude
Unknown
Altitude
Unknown
Speed
Unknown
Apparent Right ascension
Unknown
Apparent Declination
Unknown
Sunlit
N/A
Visualization observer readout
Local Sidereal Time
07:24:32
Azimuth
Unknown
Elevation
Unknown
Doppler factor
Unknown
Orbital elements
Apogee altitude
471.802 km
Perigee altitude
470.156 km
Semi-major axis
6,849.116 km
Eccentricity
0.00012
Inclination
53.1622°
RAAN
27.4331°
Arg. of periapsis
99.2845°
True anomaly
260.8156°
Mean anomaly
260.8292°
Eccentric anomaly
260.8224°
Mean motion
3.82905 °/min
Orbital period
94.02 mins
BSTAR
0.000026726
Loading maneuver chart data...
Computing Atmospheric mass density...
Loading historical data...
Loading historical data...
Loading historical data...
Loading historical data...
Loading historical data...
Loading historical data...
Loading historical data...

Documentation

Showing up to 5 results
|